TimeCDT,TemperatureF,Dew PointF,Humidity,Sea Level PressureIn,VisibilityMPH,Wind Direction,Wind SpeedMPH,Gust SpeedMPH,PrecipitationIn,Events,Conditions,WindDirDegrees,DateUTC
12:15 AM,44.2,40.6,87,29.92,10.0,West,5.8,-,N/A,,Clear,280,2012-10-15 05:15:00
12:35 AM,43.5,39.7,87,29.92,10.0,West,4.6,-,N/A,,Clear,280,2012-10-15 05:35:00
12:55 AM,42.8,39.4,88,29.93,10.0,West,5.8,-,N/A,,Clear,280,2012-10-15 05:55:00
1:15 AM,43.2,39.6,87,29.93,10.0,West,8.1,-,N/A,,Clear,280,2012-10-15 06:15:00
1:35 AM,42.8,39.4,88,29.94,10.0,West,6.9,-,N/A,,Clear,280,2012-10-15 06:35:00
1:55 AM,42.6,39.4,88,29.94,10.0,West,8.1,-,N/A,,Clear,280,2012-10-15 06:55:00
2:15 AM,42.8,39.6,88,29.95,10.0,West,6.9,-,N/A,,Clear,280,2012-10-15 07:15:00
2:35 AM,42.3,39.0,88,29.95,10.0,West,6.9,-,N/A,,Clear,280,2012-10-15 07:35:00
2:55 AM,42.1,38.7,88,29.95,10.0,WNW,3.5,-,N/A,,Clear,290,2012-10-15 07:55:00
3:15 AM,41.4,38.1,88,29.95,10.0,West,6.9,-,N/A,,Clear,280,2012-10-15 08:15:00
3:35 AM,41.0,37.6,88,29.94,10.0,West,5.8,-,N/A,,Clear,280,2012-10-15 08:35:00
3:55 AM,40.1,37.0,89,29.94,10.0,West,8.1,-,N/A,,Clear,280,2012-10-15 08:55:00
4:15 AM,40.6,37.6,89,29.94,10.0,WNW,6.9,-,N/A,,Clear,290,2012-10-15 09:15:00
4:55 AM,40.3,37.0,88,29.95,10.0,WNW,8.1,-,N/A,,Clear,290,2012-10-15 09:55:00
5:15 AM,40.5,37.2,88,29.96,10.0,WNW,8.1,-,N/A,,Clear,290,2012-10-15 10:15:00
5:55 AM,40.3,36.5,86,29.97,10.0,West,6.9,-,N/A,,Clear,280,2012-10-15 10:55:00
6:15 AM,40.1,36.7,88,29.97,10.0,West,6.9,-,N/A,,Clear,280,2012-10-15 11:15:00
6:35 AM,39.7,36.7,89,29.97,10.0,West,6.9,-,N/A,,Clear,280,2012-10-15 11:35:00
6:55 AM,39.6,36.5,89,29.98,10.0,West,6.9,-,N/A,,Clear,280,2012-10-15 11:55:00
7:15 AM,38.8,35.8,89,29.98,10.0,West,6.9,-,N/A,,Clear,280,2012-10-15 12:15:00
7:35 AM,39.7,36.5,88,29.98,10.0,West,6.9,-,N/A,,Clear,280,2012-10-15 12:35:00
7:55 AM,39.9,36.5,88,29.98,10.0,West,5.8,-,N/A,,Clear,280,2012-10-15 12:55:00
8:15 AM,41.7,38.3,88,29.98,10.0,WNW,3.5,-,N/A,,Clear,290,2012-10-15 13:15:00
8:35 AM,43.7,39.4,85,29.99,10.0,WNW,4.6,-,N/A,,Clear,300,2012-10-15 13:35:00
8:55 AM,45.7,40.6,83,30.00,10.0,NW,4.6,-,N/A,,Clear,320,2012-10-15 13:55:00
9:15 AM,48.0,41.9,79,30.00,10.0,NW,5.8,-,N/A,,Clear,320,2012-10-15 14:15:00
9:35 AM,50.0,41.7,73,30.01,10.0,NNW,6.9,-,N/A,,Clear,330,2012-10-15 14:35:00
9:55 AM,51.4,42.8,72,30.01,10.0,NW,4.6,-,N/A,,Clear,310,2012-10-15 14:55:00
10:15 AM,52.7,42.4,68,30.01,10.0,NNW,6.9,-,N/A,,Clear,340,2012-10-15 15:15:00
10:35 AM,54.7,43.0,65,30.01,10.0,NNW,5.8,-,N/A,,Clear,340,2012-10-15 15:35:00
10:55 AM,55.4,41.7,60,30.01,10.0,NNW,4.6,-,N/A,,Clear,330,2012-10-15 15:55:00
11:15 AM,56.3,42.3,59,30.00,10.0,NNW,3.5,-,N/A,,Clear,330,2012-10-15 16:15:00
11:35 AM,57.2,41.7,56,30.01,10.0,Calm,Calm,-,N/A,,Clear,0,2012-10-15 16:35:00
11:55 AM,58.3,41.4,53,30.01,10.0,NW,4.6,-,N/A,,Clear,320,2012-10-15 16:55:00
12:15 PM,59.2,41.0,51,30.01,10.0,WSW,4.6,-,N/A,,Clear,240,2012-10-15 17:15:00
12:35 PM,59.7,40.3,49,30.01,10.0,West,3.5,-,N/A,,Clear,280,2012-10-15 17:35:00
12:55 PM,61.2,41.0,47,30.00,10.0,NNW,4.6,-,N/A,,Clear,330,2012-10-15 17:55:00
1:15 PM,61.5,40.8,47,29.99,10.0,Calm,Calm,-,N/A,,Clear,0,2012-10-15 18:15:00
1:35 PM,62.1,41.0,46,29.97,10.0,Calm,Calm,-,N/A,,Clear,0,2012-10-15 18:35:00
1:55 PM,63.3,40.3,43,29.97,10.0,Calm,Calm,-,N/A,,Clear,0,2012-10-15 18:55:00
2:15 PM,63.7,39.9,42,29.96,10.0,Calm,Calm,-,N/A,,Clear,0,2012-10-15 19:15:00
2:35 PM,65.3,39.7,39,29.96,10.0,Calm,Calm,-,N/A,,Clear,0,2012-10-15 19:35:00
2:55 PM,65.3,40.3,40,29.94,10.0,Calm,Calm,-,N/A,,Clear,0,2012-10-15 19:55:00
3:15 PM,65.8,39.4,38,29.94,10.0,Calm,Calm,-,N/A,,Clear,0,2012-10-15 20:15:00
3:35 PM,65.5,39.2,38,29.94,10.0,Calm,Calm,-,N/A,,Clear,0,2012-10-15 20:35:00
3:55 PM,65.8,38.8,37,29.93,10.0,Calm,Calm,-,N/A,,Clear,0,2012-10-15 20:55:00
4:15 PM,66.9,39.2,36,29.92,10.0,SSE,3.5,-,N/A,,Clear,150,2012-10-15 21:15:00
4:35 PM,66.7,39.6,37,29.92,10.0,SSW,4.6,-,N/A,,Clear,210,2012-10-15 21:35:00
4:55 PM,67.3,39.7,36,29.92,10.0,South,4.6,-,N/A,,Clear,190,2012-10-15 21:55:00
5:15 PM,66.9,37.9,34,29.92,10.0,Calm,Calm,-,N/A,,Clear,0,2012-10-15 22:15:00
5:35 PM,66.6,37.0,34,29.91,10.0,Calm,Calm,-,N/A,,Clear,0,2012-10-15 22:35:00
5:55 PM,65.3,38.5,37,29.90,10.0,ESE,3.5,-,N/A,,Clear,120,2012-10-15 22:55:00
6:15 PM,62.1,40.5,45,29.90,10.0,ESE,3.5,-,N/A,,Clear,110,2012-10-15 23:15:00
6:35 PM,59.5,41.2,51,29.90,10.0,ESE,4.6,-,N/A,,Clear,110,2012-10-15 23:35:00
6:55 PM,58.5,40.1,51,29.90,10.0,ESE,5.8,-,N/A,,Clear,120,2012-10-15 23:55:00
7:15 PM,56.8,41.9,57,29.90,10.0,ESE,8.1,-,N/A,,Clear,120,2012-10-16 00:15:00
7:35 PM,56.8,42.3,58,29.90,10.0,ESE,6.9,-,N/A,,Clear,120,2012-10-16 00:35:00
7:55 PM,56.1,42.6,61,29.90,10.0,SE,6.9,-,N/A,,Clear,130,2012-10-16 00:55:00
8:15 PM,55.4,42.4,62,29.90,10.0,SE,6.9,-,N/A,,Clear,130,2012-10-16 01:15:00
8:35 PM,54.7,42.4,63,29.90,10.0,SE,8.1,-,N/A,,Clear,130,2012-10-16 01:35:00
8:55 PM,54.5,42.1,63,29.90,10.0,SE,6.9,-,N/A,,Clear,130,2012-10-16 01:55:00
9:15 PM,53.1,42.1,66,29.90,10.0,SE,5.8,-,N/A,,Clear,130,2012-10-16 02:15:00
9:35 PM,52.3,42.1,68,29.90,10.0,SE,6.9,-,N/A,,Clear,130,2012-10-16 02:35:00
9:55 PM,51.1,42.3,72,29.90,10.0,SE,8.1,-,N/A,,Clear,140,2012-10-16 02:55:00
10:15 PM,50.0,42.4,75,29.89,10.0,SSE,8.1,-,N/A,,Clear,150,2012-10-16 03:15:00
10:35 PM,50.2,42.6,75,29.89,10.0,SSE,8.1,-,N/A,,Clear,150,2012-10-16 03:35:00
10:55 PM,50.5,42.1,73,29.89,10.0,SE,6.9,-,N/A,,Clear,140,2012-10-16 03:55:00
11:15 PM,49.1,41.9,76,29.89,10.0,SSE,5.8,-,N/A,,Clear,150,2012-10-16 04:15:00
11:35 PM,48.4,41.5,77,29.88,10.0,SE,6.9,-,N/A,,Clear,140,2012-10-16 04:35:00
11:55 PM,47.7,41.0,78,29.88,10.0,SSE,6.9,-,N/A,,Clear,150,2012-10-16 04:55:00